Weather Roundup
Issued by NWS

Home | Current Version | Previous Version | Graphics & Text | Print | Product List | Glossary Off
Versions: 1 2 3 4 5 6 7 8 9 10 11 12 13 14 15 16 17 18 19 20 21 22 23 24 25 26 27 28 29 30 31 32 33 34 35 36 37 38 39 40 41 42 43 44 45 46 47 48 49 50

000
NZUS93 KARX 221359
HRRWXR

CURRENT HOURLY OBSERVATIONS ACROSS
MUCH OF THE UPPER MISSISSIPPI VALLEY
NATIONAL WEATHER SERVICE LA CROSSE WI
900 AM CDT FRI SEP 22 2017


...SOUTHEAST MINNESOTA...


CITY           SKY/WX    TMP DP  RH WIND       PRES   REMARKS
ROCHESTER      SUNNY     75  69  81 S13       29.93R
ROCHESTER/MAYO FAIR      75  70  84 S9G17     29.92S
WINONA         SUNNY     79  70  73 CALM      29.92S
AUSTIN         SUNNY     75  68  78 S8        29.92R
ALBERT LEA     CLOUDY    79  72  78 S15       29.89S
DODGE CENTER   MOSUNNY   77  68  73 S21       29.90S
PRESTON        SUNNY     76  68  75 S17       29.95S
OWATONNA       CLOUDY    75  70  83 S14       29.88R
FARIBAULT      CLOUDY    75  70  83 S13       29.86S
$$

...ELSEWHERE IN MINNESOTA...


CITY           SKY/WX    TMP DP  RH WIND       PRES   REMARKS
MINNEAPOLIS    CLOUDY    76  72  87 SE9       29.85R
INTNL FALLS    CLOUDY    63  61  93 E5        29.81F
DULUTH         CLOUDY    67  61  81 E16       29.88F
RED WING       CLOUDY    79  70  73 SE8       29.87S
REDWOOD FALLS  CLOUDY    76  71  85 S12       29.76F
MANKATO        CLOUDY    77  71  82 S14G21    29.83S
WORTHINGTON    MOSUNNY   76  70  82 S16G22    29.80S
FAIRMONT       MOSUNNY   76  71  85 S16       29.84R
$$

...SOUTHWEST WISCONSIN...


CITY           SKY/WX    TMP DP  RH WIND       PRES   REMARKS
LA CROSSE      CLOUDY    81  70  69 S15       29.94R
PRAIRIE DU CHI SUNNY     78  66  67 S3        29.97S
BOSCOBEL       SUNNY     80  68  66 S7        29.99R
LONE ROCK      NOT AVBL
PLATTEVILLE    SUNNY     75  72  89 S9        30.03R
FORT MC COY    SUNNY     77  68  74 CALM      29.97R
MAUSTON-NEW LI SUNNY     76  69  81 S3        29.98S
VIROQUA        FAIR      75  70  85 S6        30.00R
WIS DELLS      SUNNY     75  66  73 S9        30.01R
$$

...ELSEWHERE IN WISCONSIN...


CITY           SKY/WX    TMP DP  RH WIND       PRES   REMARKS
MILWAUKEE      MOSUNNY   80  69  69 SW10      30.05S
MADISON        MOSUNNY   75  68  78 S8        30.03S
GREEN BAY      SUNNY     77  71  82 S9        30.02R
EAU CLAIRE     NOT AVBL
BLACK RVR FLS  FAIR      76  71  83 CALM      29.95R
MEDFORD        CLOUDY    72  67  86 S10       29.97F
WAUSAU         SUNNY     74  68  81 S8        29.98S
WIS RAPIDS     CLOUDY    77  69  76 S9        30.01R
MARSHFIELD     SUNNY     74  67  78 S9        29.98S
RICE LAKE      CLOUDY    72  68  88 CALM      29.92R FOG
$$

...NORTHEAST IOWA...


CITY           SKY/WX    TMP DP  RH WIND       PRES   REMARKS
WATERLOO       SUNNY     77  68  73 S14       29.94S
DUBUQUE        SUNNY     74  68  81 S13       30.02S
DECORAH        SUNNY     77  70  78 S8G14     29.96R
MASON CITY     SUNNY     73  69  87 S13       29.92S
CHARLES CITY   SUNNY     77  72  83 S12G17    29.95R
OELWEIN        SUNNY     77  70  78 S15G22    29.98S
$$

...ELSEWHERE IN IOWA...


CITY           SKY/WX    TMP DP  RH WIND       PRES   REMARKS
DES MOINES     MOSUNNY   77  70  79 S10       29.93R
IOWA CITY      SUNNY     78  70  76 S8        30.01R
FORT DODGE     SUNNY     79  70  74 S15G21    29.89R
MARSHALLTOWN   SUNNY     77  70  79 S15       29.95R
CEDAR RAPIDS   SUNNY     77  69  76 S9        29.99R
$$

...NORTHERN ILLINOIS...


CITY           SKY/WX    TMP DP  RH WIND       PRES   REMARKS
CHICAGO-OHARE  MOSUNNY   80  67  64 SW5       30.07S
CHICAGO-MIDWAY MOSUNNY   82  68  62 S6        30.08S
MOLINE         SUNNY     78  68  71 S7        30.02S
ROCKFORD       MOSUNNY   76  69  79 S9        30.07R
PEORIA         SUNNY     77  70  79 S7        30.07R
$$

NOTE: "FAIR" INDICATES FEW OR NO CLOUDS BELOW 12,000 FEET WITH NO
SIGNIFICANT WEATHER AND/OR OBSTRUCTIONS TO VISIBILITY. WIND
SPEEDS ARE IN MILES-PER-HOUR.




USA.gov is the U.S. government's official web portal to all federal, state and local government web resources and services.